Weather History for Banff, AB

Change the Weather History Date:

Sunday, January 20, 2013

  Actual Average Record
Temperature  
Mean Temperature 15 °F -  
Max Temperature 25 °F - - ()
Min Temperature 5 °F - - ()
Degree Days  
Heating Degree Days 50    
Moisture  
Dew Point 6 °F    
Average Humidity 68    
Maximum Humidity 82    
Minimum Humidity 45    
Precipitation  
Precipitation 0.00 in - - ()
Sea Level Pressure  
Sea Level Pressure 30.48 in    
Wind  
Wind Speed 5 mph ()    
Max Wind Speed 12 mph    
Max Gust Speed 20 mph    
T = Trace of Precipitation, MM = Missing Value Source: Averaged Metar Reports

Daily Weather History Graph

Daily Weather History Graph

Search for Another Location

Airport:

Trip Planner

Search our weather history database for the weather conditions in past years. The results will help you decide how hot, cold, wet, or windy it might be!

Date:

Astronomy

Jan. 20, 2013 Rise Set
Actual Time 8:34 AM MST 5:12 PM MST
Civil Twilight 7:57 AM MST 5:50 PM MST
Nautical Twilight 7:16 AM MST 6:31 PM MST
Astronomical Twilight 6:36 AM MST 7:10 PM MST
Moon 12:18 PM MST (1/20) 3:07 AM MST (1/20)
Length of Visible Light 9h 52m
Length of Day
8h 38m
Waxing Gibbous, 67% of the Moon is Illuminated
Jan 20
Waxing Gibbous
Jan 26
Full
Feb 3
Last Quarter
Feb 10
New
Feb 17
First Quarter

Hourly Weather History & Observations

Time (MST) Temp. Windchill Dew Point Humidity Pressure Visibility Wind Dir Wind Speed Gust Speed Precip Events Conditions
12:00 AM 22.8 °F 11.5 °F 14.9 °F 72% 30.38 in - NNE 11.5 mph - N/A   Unknown
1:00 AM 18.3 °F 5.9 °F 11.1 °F 73% 30.41 in - NE 11.5 mph 19.6 mph N/A   Unknown
2:00 AM 15.1 °F 4.2 °F 7.9 °F 73% 30.46 in - NE 8.1 mph - N/A   Unknown
3:00 AM 13.8 °F 3.7 °F 6.1 °F 71% 30.48 in - NE 6.9 mph - N/A   Unknown
4:00 AM 12.6 °F 1.1 °F 4.8 °F 71% 30.49 in - East 8.1 mph - N/A   Unknown
5:00 AM 10.9 °F 2.9 °F 4.3 °F 75% 30.51 in - ENE 4.6 mph - N/A   Unknown
6:00 AM 9.7 °F 3.2 °F 4.1 °F 78% 30.53 in - NE 3.5 mph - N/A   Unknown
7:00 AM 8.4 °F 1.8 °F 3.2 °F 79% 30.55 in - NE 3.5 mph - N/A   Unknown
8:00 AM 7.0 °F 0.1 °F 2.1 °F 80% 30.56 in - NNE 3.5 mph - N/A   Unknown
9:00 AM 5.7 °F - 1.2 °F 82% 30.58 in - East 2.3 mph - N/A   Unknown
10:00 AM 6.1 °F - 1.2 °F 80% 30.58 in - Calm Calm - N/A   Unknown
11:00 AM 8.6 °F - 2.5 °F 76% 30.58 in - SSW 1.2 mph - N/A   Unknown
12:00 PM 13.3 °F - -0.2 °F 55% 30.55 in - North 1.2 mph - N/A   Unknown
1:00 PM 15.8 °F - 0.5 °F 51% 30.52 in - NNE 1.2 mph - N/A   Unknown
2:00 PM 19.4 °F - 0.9 °F 45% 30.48 in - Calm Calm - N/A   Unknown
3:00 PM 21.9 °F 15.7 °F 6.3 °F 51% 30.43 in - SSW 4.6 mph - N/A   Unknown
4:00 PM 25.5 °F 16.2 °F 9.0 °F 50% 30.40 in - SW 9.2 mph - N/A   Unknown
5:00 PM 23.4 °F - 8.8 °F 54% 30.42 in - East 2.3 mph - N/A   Unknown
6:00 PM 19.9 °F - 8.6 °F 61% 30.43 in - NE 2.3 mph - N/A   Unknown
7:00 PM 18.0 °F - 8.1 °F 65% 30.43 in - Calm Calm - N/A   Unknown
8:00 PM 16.7 °F - 7.9 °F 68% 30.43 in - NE 2.3 mph - N/A   Unknown
9:00 PM 16.0 °F - 8.1 °F 71% 30.43 in - East 1.2 mph - N/A   Unknown
10:00 PM 14.7 °F - 7.5 °F 73% 30.42 in - NE 2.3 mph - N/A   Unknown
11:00 PM 12.9 °F - 6.3 °F 75% 30.39 in - Calm Calm - N/A   Unknown